TimeCST,TemperatureF,Dew PointF,Humidity,Sea Level PressureIn,VisibilityMPH,Wind Direction,Wind SpeedMPH,Gust SpeedMPH,PrecipitationIn,Events,Conditions,WindDirDegrees,DateUTC
12:51 AM,48.2,46.4,93,30.23,10.0,NNE,5.8,-,N/A,,Overcast,20,2014-01-10 06:51:00
12:56 AM,48.0,46.9,96,30.23,10.0,NNE,4.6,-,N/A,,Overcast,20,2014-01-10 06:56:00
1:56 AM,46.9,46.9,100,30.21,10.0,Calm,Calm,-,N/A,,Overcast,0,2014-01-10 07:56:00
2:14 AM,46.9,46.9,100,30.20,10.0,NNE,5.8,-,N/A,,Overcast,30,2014-01-10 08:14:00
2:56 AM,46.9,46.9,100,30.19,9.0,NNE,4.6,-,N/A,,Overcast,20,2014-01-10 08:56:00
3:56 AM,46.9,46.9,100,30.19,10.0,NE,4.6,-,N/A,,Overcast,40,2014-01-10 09:56:00
4:31 AM,46.9,46.9,100,30.18,10.0,ENE,4.6,-,N/A,,Overcast,60,2014-01-10 10:31:00
4:56 AM,48.0,46.9,96,30.17,10.0,ENE,4.6,-,N/A,,Overcast,60,2014-01-10 10:56:00
5:56 AM,46.9,46.9,100,30.16,3.0,NE,5.8,-,N/A,,Overcast,50,2014-01-10 11:56:00
6:36 AM,46.9,46.9,100,30.14,1.0,NE,6.9,-,N/A,,Overcast,50,2014-01-10 12:36:00
6:47 AM,48.0,48.0,100,30.14,2.0,NE,6.9,-,N/A,,Overcast,50,2014-01-10 12:47:00
6:56 AM,48.0,48.0,100,30.14,2.0,ENE,4.6,-,N/A,,Overcast,60,2014-01-10 12:56:00
7:12 AM,48.0,48.0,100,30.15,3.0,East,5.8,-,N/A,,Overcast,80,2014-01-10 13:12:00
7:34 AM,48.0,48.0,100,30.15,3.0,ENE,5.8,-,N/A,,Mostly Cloudy,70,2014-01-10 13:34:00
7:56 AM,48.9,48.9,100,30.17,3.0,ESE,6.9,-,N/A,,Overcast,110,2014-01-10 13:56:00
8:56 AM,51.1,50.0,96,30.17,3.0,East,5.8,-,N/A,,Overcast,80,2014-01-10 14:56:00
9:56 AM,53.1,51.1,93,30.17,3.0,ESE,4.6,-,N/A,,Overcast,110,2014-01-10 15:56:00
10:10 AM,53.1,52.0,96,30.16,2.5,East,4.6,-,0.00,Rain,Light Rain,80,2014-01-10 16:10:00
10:35 AM,54.0,53.1,97,30.14,3.0,Variable,3.5,-,0.00,,Overcast,0,2014-01-10 16:35:00
10:56 AM,55.0,53.1,93,30.13,3.0,ENE,3.5,-,0.00,,Overcast,70,2014-01-10 16:56:00
11:19 AM,57.0,54.0,89,30.11,4.0,ESE,4.6,-,N/A,,Overcast,120,2014-01-10 17:19:00
11:31 AM,57.9,54.0,87,30.10,4.0,ESE,4.6,-,N/A,,Overcast,120,2014-01-10 17:31:00
11:56 AM,60.1,55.0,83,30.08,4.0,SE,5.8,-,N/A,,Haze,130,2014-01-10 17:56:00
12:29 PM,61.0,55.9,83,30.06,7.0,ESE,6.9,-,N/A,,Overcast,110,2014-01-10 18:29:00
12:56 PM,59.0,57.0,93,30.04,4.0,SE,4.6,-,0.00,Rain,Light Rain,140,2014-01-10 18:56:00
1:15 PM,59.0,57.9,96,30.03,2.5,East,4.6,-,0.00,Rain,Light Rain,100,2014-01-10 19:15:00
1:24 PM,59.0,57.9,96,30.03,3.0,ESE,4.6,-,0.01,Rain,Light Rain,110,2014-01-10 19:24:00
1:42 PM,60.1,59.0,96,30.02,4.0,ESE,6.9,-,0.01,,Overcast,110,2014-01-10 19:42:00
1:56 PM,59.0,57.9,96,30.02,4.0,ESE,5.8,-,0.01,,Overcast,120,2014-01-10 19:56:00
2:42 PM,59.0,57.9,96,30.00,5.0,East,5.8,-,0.00,,Overcast,100,2014-01-10 20:42:00
2:56 PM,59.0,57.9,96,30.00,5.0,ESE,6.9,-,0.00,,Overcast,110,2014-01-10 20:56:00
3:56 PM,60.1,57.9,93,30.01,10.0,SE,6.9,-,N/A,,Overcast,140,2014-01-10 21:56:00
4:56 PM,60.1,59.0,96,29.99,10.0,ESE,9.2,-,N/A,,Overcast,120,2014-01-10 22:56:00
5:56 PM,59.0,59.0,100,29.99,9.0,ESE,8.1,-,0.01,,Overcast,120,2014-01-10 23:56:00
6:18 PM,57.9,57.9,100,29.99,4.0,SE,9.2,-,N/A,,Overcast,130,2014-01-11 00:18:00
6:31 PM,57.9,57.9,100,29.99,2.0,SE,5.8,-,N/A,,Overcast,140,2014-01-11 00:31:00
6:56 PM,57.9,57.9,100,29.99,1.8,SE,8.1,-,N/A,,Overcast,130,2014-01-11 00:56:00
7:34 PM,57.9,57.9,100,29.98,0.5,SE,6.9,-,0.00,Fog,Fog,130,2014-01-11 01:34:00
7:56 PM,57.9,57.9,100,29.98,0.2,SE,6.9,-,0.00,Fog,Fog,130,2014-01-11 01:56:00
8:16 PM,59.0,59.0,100,29.98,0.5,SE,4.6,-,N/A,Fog,Fog,140,2014-01-11 02:16:00
8:30 PM,59.0,59.0,100,29.98,1.5,SE,6.9,-,N/A,,Overcast,140,2014-01-11 02:30:00
8:51 PM,59.0,59.0,100,29.97,0.5,SSE,8.1,-,0.00,Fog-Rain,Light Rain,150,2014-01-11 02:51:00
8:56 PM,59.0,59.0,100,29.96,0.8,SE,5.8,-,0.05,Rain,Heavy Rain,130,2014-01-11 02:56:00
9:05 PM,59.0,59.0,100,29.96,1.8,SE,4.6,-,0.02,Rain,Light Rain,130,2014-01-11 03:05:00
9:51 PM,60.8,60.8,100,29.96,0.5,SSE,6.9,-,0.04,Fog-Rain,Light Rain,150,2014-01-11 03:51:00
9:56 PM,60.1,60.1,100,29.95,0.5,SSE,6.9,-,0.04,Fog-Rain,Light Rain,160,2014-01-11 03:56:00
10:20 PM,61.0,61.0,100,29.95,0.2,South,5.8,-,0.00,Fog,Fog,170,2014-01-11 04:20:00
10:44 PM,63.0,63.0,100,29.95,0.5,South,6.9,-,0.00,Fog,Fog,190,2014-01-11 04:44:00
10:56 PM,64.0,64.0,100,29.95,0.5,South,10.4,-,0.00,Fog,Fog,180,2014-01-11 04:56:00
11:11 PM,66.0,66.0,100,29.94,2.0,South,15.0,23.0,N/A,,Overcast,180,2014-01-11 05:11:00
11:20 PM,66.0,66.0,100,29.94,6.0,South,17.3,-,N/A,,Overcast,180,2014-01-11 05:20:00
11:46 PM,66.0,66.0,100,29.94,1.8,South,12.7,-,N/A,,Overcast,180,2014-01-11 05:46:00
11:56 PM,66.0,66.0,100,29.93,1.2,South,12.7,-,N/A,,Overcast,170,2014-01-11 05:56:00